This demonstration page uses our WeatherBlox Daily Observations layout. Learn more.

Hourly Observations for July 20, 2019

Temp ( °F °C ) Dew Point ( °F °C ) Humidity (%) Winds ( mph kmh ) Pressure ( in mb ) Visibility ( mi km ) Precip ( " mm )
12:15 am 00:15 Clear 82 28 75 24 79 79 Calm 29.94 1014 10 16.09344 0 0
12:35 am 00:35 Clear 81 27 75 24 84 84 W 3 6 29.94 1014 10 16.09344 0 0
12:55 am 00:55 Clear 81 27 75 24 84 84 Calm 29.94 1014 10 16.09344 0 0
1:15 am 01:15 Clear 81 27 75 24 84 84 WSW 5 7 29.94 1014 10 16.09344 0 0
1:35 am 01:35 Clear 79 26 73 23 84 84 W 5 7 29.94 1014 10 16.09344 0 0
1:55 am 01:55 Clear 79 26 73 23 84 84 W 5 7 29.94 1014 10 16.09344 0 0
2:15 am 02:15 Clear 79 26 73 23 84 84 Calm 29.94 1014 10 16.09344 0 0
2:35 am 02:35 Clear 81 27 73 23 79 79 Calm 29.94 1014 10 16.09344 0 0
2:55 am 02:55 Clear 79 26 73 23 84 84 SW 5 7 29.94 1014 10 16.09344 0 0
3:15 am 03:15 Clear 79 26 73 23 84 84 Calm 29.94 1014 10 16.09344 0 0
3:35 am 03:35 Clear 79 26 73 23 84 84 Calm 29.94 1014 10 16.09344 0 0
3:55 am 03:55 Clear 79 26 73 23 84 84 Calm 29.94 1014 10 16.09344 0 0
4:15 am 04:15 Clear 79 26 73 23 84 84 Calm 29.94 1014 10 16.09344 0 0
4:35 am 04:35 Clear 77 25 73 23 89 89 Calm 29.94 1014 10 16.09344 0 0
4:55 am 04:55 Clear 75 24 73 23 94 94 WSW 5 7 29.94 1014 10 16.09344 0 0
5:15 am 05:15 Clear 75 24 73 23 94 94 WNW 3 6 29.97 1015 10 16.09344 0 0
5:35 am 05:35 Clear 77 25 73 23 89 89 Calm 29.97 1015 10 16.09344 0 0
5:55 am 05:55 Clear 79 26 73 23 84 84 Calm 29.97 1015 10 16.09344 0 0
6:15 am 06:15 Sunny 79 26 73 23 84 84 SSW 3 6 29.97 1015 10 16.09344 0 0
6:35 am 06:35 Sunny 77 25 73 23 89 89 W 3 6 29.97 1015 10 16.09344 0 0
6:55 am 06:55 Sunny 77 25 73 23 89 89 Calm 29.97 1015 10 16.09344 0 0
7:15 am 07:15 Sunny 81 27 73 23 79 79 Calm 29.97 1015 10 16.09344 0 0
7:35 am 07:35 Sunny 82 28 75 24 79 79 Calm 29.97 1015 10 16.09344 0 0
7:55 am 07:55 Sunny 82 28 77 25 84 84 Calm 29.94 1014 10 16.09344 0 0
8:15 am 08:15 Sunny 84 29 75 24 74 74 Calm 29.97 1015 10 16.09344 0 0
8:35 am 08:35 Sunny 86 30 77 25 75 75 Calm 29.94 1014 10 16.09344 0 0
8:55 am 08:55 Sunny 86 30 77 25 75 75 W 3 6 29.94 1014 10 16.09344 0 0
9:15 am 09:15 Sunny 88 31 77 25 70 70 WNW 6 9 29.94 1014 10 16.09344 0 0
9:35 am 09:35 Sunny 88 31 77 25 70 70 NW 5 7 29.94 1014 10 16.09344 0 0
9:55 am 09:55 Sunny 90 32 77 25 67 67 WNW 7 11 29.94 1014 10 16.09344 0 0
10:15 am 10:15 Sunny 90 32 79 26 71 71 NNW 7 11 29.94 1014 10 16.09344 0 0
10:35 am 10:35 Sunny 91 33 79 26 67 67 NNW 12 19 29.94 1014 10 16.09344 0 0
10:55 am 10:55 Sunny 91 33 79 26 67 67 NW 10 17 29.97 1015 10 16.09344 0 0
11:15 am 11:15 Sunny 91 33 79 26 67 67 NNW 12 19 29.94 1014 10 16.09344 0 0
11:35 am 11:35 Partly Cloudy 91 33 79 26 67 67 NW 14 22 29.94 1014 10 16.09344 0 0
11:55 am 11:55 Sunny 93 34 77 25 59 59 NNW 7 11 29.91 1013 10 16.09344 0 0
12:15 pm 12:15 Sunny 93 34 77 25 59 59 WNW 6 9 29.91 1013 10 16.09344 0 0
12:35 pm 12:35 Sunny 93 34 77 25 59 59 WNW 5 7 29.91 1013 10 16.09344 0 0
12:55 pm 12:55 Partly Cloudy 95 35 77 25 56 56 WNW 8 13 29.91 1013 10 16.09344 0 0
1:15 pm 13:15 Partly Cloudy 95 35 77 25 56 56 W 8 13 29.88 1012 10 16.09344 0 0
1:35 pm 13:35 Sunny 95 35 77 25 56 56 SSW 8 13 29.88 1012 10 16.09344 0 0
1:55 pm 13:55 Partly Cloudy 95 35 77 25 56 56 NW 6 9 29.88 1012 10 16.09344 0 0
2:15 pm 14:15 Sunny 97 36 77 25 53 53 S 8 13 29.85 1011 10 16.09344 0 0
2:35 pm 14:35 Sunny 97 36 77 25 53 53 SSW 8 13 29.85 1011 10 16.09344 0 0
2:55 pm 14:55 Sunny 97 36 75 24 50 50 W 8 13 29.85 1011 10 16.09344 0 0
3:15 pm 15:15 Partly Cloudy with Nearby Thunderstorms 97 36 75 24 50 50 W 8 13 29.85 1011 10 16.09344 0 0
3:35 pm 15:35 Sunny 97 36 75 24 50 50 WSW 9 15 29.85 1011 10 16.09344 0 0
3:55 pm 15:55 Sunny 97 36 75 24 50 50 SW 7 11 29.85 1011 10 16.09344 0 0
4:15 pm 16:15 Sunny 99 37 73 23 44 44 W 9 15 29.85 1011 10 16.09344 0 0
4:35 pm 16:35 Sunny 99 37 75 24 47 47 W 8 13 29.85 1011 10 16.09344 0 0
4:55 pm 16:55 Sunny 99 37 73 23 44 44 SW 8 13 29.85 1011 10 16.09344 0 0
5:15 pm 17:15 Sunny 99 37 73 23 44 44 WSW 9 15 29.85 1011 10 16.09344 0 0
5:35 pm 17:35 Sunny 99 37 73 23 44 44 SW 8 13 29.85 1011 10 16.09344 0 0
5:55 pm 17:55 Sunny 97 36 75 24 50 50 SW 6 9 29.85 1011 10 16.09344 0 0
6:15 pm 18:15 Sunny 97 36 75 24 50 50 SW 7 11 29.85 1011 10 16.09344 0 0
6:35 pm 18:35 Sunny 95 35 77 25 56 56 SW 5 7 29.85 1011 10 16.09344 0 0
6:55 pm 18:55 Sunny 97 36 77 25 53 53 SSW 6 9 29.85 1011 10 16.09344 0 0
7:15 pm 19:15 Sunny 95 35 77 25 56 56 SW 3 6 29.85 1011 10 16.09344 0 0
7:35 pm 19:35 Sunny 93 34 77 25 59 59 Calm 29.85 1011 10 16.09344 0 0
7:55 pm 19:55 Sunny 91 33 77 25 63 63 Calm 29.85 1011 10 16.09344 0 0
8:15 pm 20:15 Partly Cloudy 91 33 77 25 63 63 Calm 29.85 1011 10 16.09344 0 0
8:35 pm 20:35 Mostly Cloudy 88 31 79 26 75 75 W 15 24 29.88 1012 10 16.09344 0 0
8:55 pm 20:55 Mostly Cloudy 82 28 77 25 84 84 WSW 6 9 29.91 1013 3 4.828032 0.02 0.508
9:35 pm 21:35 Mostly Cloudy 79 26 77 25 94 94 WSW 3 6 29.91 1013 10 16.09344 0 0
9:55 pm 21:55 Partly Cloudy 79 26 75 24 89 89 W 5 7 29.91 1013 10 16.09344 0 0
10:15 pm 22:15 Clear 79 26 73 23 84 84 WNW 5 7 29.91 1013 10 16.09344 0 0
10:35 pm 22:35 Partly Cloudy 79 26 75 24 89 89 SW 7 11 29.91 1013 10 16.09344 0 0
10:55 pm 22:55 Clear 79 26 75 24 89 89 SW 7 11 29.91 1013 10 16.09344 0 0
11:15 pm 23:15 Clear 77 25 73 23 89 89 WSW 6 9 29.91 1013 10 16.09344 0 0
11:35 pm 23:35 Clear 77 25 73 23 89 89 Calm 29.91 1013 10 16.09344 0 0
11:55 pm 23:55 Clear 77 25 73 23 89 89 WSW 3 6 29.91 1013 10 16.09344 0 0

Powered by AerisWeather